| time (UTC) | temp C | wind direction | speed KPH | gust KPH | rain 1hr cm | rain 24hr cm | rain mn cm | humidity % | barometer mb |
| 20260509213003 | 13 | 0 | 0.0 | 0.0 | 0.00 | 0.89 | 0.84 | 95 | 1006.8 |
| 20260509212003 | 13 | 0 | 0.0 | 0.0 | 0.00 | 0.89 | 0.84 | 95 | 1006.9 |
| 20260509211003 | 13 | 0 | 0.0 | 0.0 | 0.00 | 0.89 | 0.84 | 95 | 1007.0 |
| 20260509210003 | 13 | 0 | 0.0 | 0.0 | 0.00 | 0.89 | 0.84 | 95 | 1007.0 |
| 20260509205003 | 12 | 0 | 0.0 | 0.0 | 0.00 | 0.89 | 0.84 | 95 | 1007.3 |
| 20260509204213 | 12 | 0 | 0.0 | 0.0 | 0.03 | 0.89 | 0.84 | 94 | 1007.3 |
| 20260509203003 | 13 | 342 | 0.0 | 6.4 | 0.03 | 0.89 | 0.84 | 95 | 1007.5 |
| 20260509202003 | 13 | 61 | 1.6 | 4.8 | 0.05 | 0.89 | 0.84 | 95 | 1007.5 |
| 20260509201003 | 13 | 44 | 0.0 | 6.4 | 0.08 | 0.89 | 0.84 | 95 | 1007.5 |
| 20260509200003 | 12 | 0 | 0.0 | 0.0 | 0.08 | 0.89 | 0.84 | 95 | 1007.4 |
| 20260509195003 | 12 | 46 | 0.0 | 6.4 | 0.13 | 0.89 | 0.84 | 95 | 1007.3 |
| 20260509194003 | 12 | 19 | 0.0 | 4.8 | 0.10 | 0.86 | 0.81 | 96 | 1007.4 |
| 20260509193003 | 12 | 5 | 0.0 | 1.6 | 0.15 | 0.86 | 0.81 | 95 | 1007.6 |
| 20260509192003 | 12 | 0 | 0.0 | 0.0 | 0.15 | 0.84 | 0.79 | 96 | 1007.6 |
| 20260509191003 | 12 | 0 | 0.0 | 0.0 | 0.15 | 0.81 | 0.76 | 95 | 1007.9 |
| 20260509190003 | 12 | 0 | 0.0 | 0.0 | 0.18 | 0.84 | 0.76 | 95 | 1008.2 |
| 20260509185213 | 12 | 0 | 0.0 | 0.0 | 0.15 | 0.79 | 0.74 | 95 | 1008.3 |
| 20260509184003 | 12 | 355 | 0.0 | 3.2 | 0.15 | 0.79 | 0.71 | 95 | 1008.3 |
| 20260509183003 | 12 | 3 | 1.6 | 8.0 | 0.15 | 0.74 | 0.66 | 95 | 1008.4 |
| 20260509182003 | 12 | 18 | 0.0 | 3.2 | 0.18 | 0.71 | 0.64 | 95 | 1008.3 |
| 20260509181003 | 12 | 0 | 0.0 | 0.0 | 0.20 | 0.69 | 0.61 | 95 | 1008.2 |
| 20260509180212 | 12 | 11 | 0.0 | 3.2 | 0.20 | 0.66 | 0.58 | 95 | 1008.3 |
| 20260509175003 | 12 | 0 | 0.0 | 0.0 | 0.23 | 0.64 | 0.56 | 96 | 1008.3 |
| 20260509174212 | 12 | 40 | 0.0 | 1.6 | 0.23 | 0.64 | 0.56 | 96 | 1008.2 |
| 20260509173003 | 12 | 40 | 0.0 | 3.2 | 0.20 | 0.58 | 0.51 | 95 | 1008.1 |
| 20260509172214 | 12 | 40 | 0.0 | 4.8 | 0.18 | 0.53 | 0.46 | 95 | 1008.3 |
| 20260509171003 | 12 | 42 | 0.0 | 3.2 | 0.15 | 0.48 | 0.41 | 95 | 1008.2 |
| 20260509170003 | 12 | 45 | 0.0 | 3.2 | 0.10 | 0.43 | 0.36 | 94 | 1008.3 |
| 20260509165003 | 12 | 45 | 0.0 | 4.8 | 0.10 | 0.41 | 0.33 | 95 | 1008.3 |
| 20260509164003 | 12 | 0 | 0.0 | 0.0 | 0.08 | 0.38 | 0.30 | 95 | 1008.3 |
| 20260509163214 | 12 | 0 | 0.0 | 0.0 | 0.08 | 0.38 | 0.30 | 95 | 1008.3 |
| 20260509162214 | 12 | 5 | 0.0 | 4.8 | 0.08 | 0.36 | 0.28 | 95 | 1008.4 |
| 20260509161003 | 12 | 5 | 1.6 | 4.8 | 0.05 | 0.33 | 0.25 | 95 | 1008.4 |
| 20260509160003 | 12 | 7 | 1.6 | 6.4 | 0.05 | 0.33 | 0.25 | 95 | 1008.5 |
| 20260509155003 | 12 | 14 | 0.0 | 4.8 | 0.05 | 0.30 | 0.23 | 94 | 1008.4 |
| 20260509154003 | 12 | 30 | 0.0 | 6.4 | 0.05 | 0.30 | 0.23 | 95 | 1008.4 |
| 20260509153213 | 12 | 0 | 0.0 | 0.0 | 0.05 | 0.30 | 0.23 | 95 | 1008.5 |
| 20260509152003 | 12 | 0 | 0.0 | 0.0 | 0.03 | 0.28 | 0.20 | 96 | 1008.6 |
| 20260509151213 | 12 | 0 | 0.0 | 0.0 | 0.05 | 0.28 | 0.20 | 96 | 1008.6 |
| 20260509150003 | 11 | 0 | 0.0 | 0.0 | 0.05 | 0.28 | 0.20 | 96 | 1008.6 |
| 20260509145003 | 11 | 0 | 0.0 | 0.0 | 0.03 | 0.25 | 0.18 | 96 | 1008.6 |
| 20260509144003 | 11 | 0 | 0.0 | 0.0 | 0.03 | 0.25 | 0.18 | 96 | 1008.4 |
| 20260509143003 | 11 | 0 | 0.0 | 0.0 | 0.05 | 0.25 | 0.18 | 96 | 1008.5 |
| 20260509142213 | 11 | 0 | 0.0 | 0.0 | 0.05 | 0.25 | 0.18 | 96 | 1008.6 |
| 20260509141003 | 11 | 0 | 0.0 | 0.0 | 0.03 | 0.23 | 0.15 | 97 | 1008.8 |
| 20260509140004 | 11 | 0 | 0.0 | 0.0 | 0.05 | 0.23 | 0.15 | 97 | 1008.7 |
| 20260509135003 | 11 | 296 | 0.0 | 1.6 | 0.05 | 0.23 | 0.15 | 97 | 1008.7 |
| 20260509134213 | 11 | 0 | 0.0 | 0.0 | 0.05 | 0.23 | 0.15 | 97 | 1008.8 |
| 20260509133004 | 11 | 296 | 0.0 | 1.6 | 0.03 | 0.20 | 0.13 | 97 | 1008.7 |
| 20260509132003 | 10 | 0 | 0.0 | 0.0 | 0.03 | 0.20 | 0.13 | 97 | 1008.6 |
| 20260509131213 | 10 | 0 | 0.0 | 0.0 | 0.03 | 0.20 | 0.13 | 97 | 1008.5 |
| 20260509130003 | 10 | 0 | 0.0 | 0.0 | 0.00 | 0.18 | 0.10 | 96 | 1008.4 |
| 20260509125003 | 10 | 0 | 0.0 | 0.0 | 0.00 | 0.18 | 0.10 | 97 | 1008.4 |
| 20260509124212 | 10 | 0 | 0.0 | 0.0 | 0.00 | 0.18 | 0.10 | 97 | 1008.3 |
| 20260509123003 | 10 | 0 | 0.0 | 0.0 | 0.03 | 0.18 | 0.10 | 97 | 1008.3 |
| 20260509122003 | 10 | 0 | 0.0 | 0.0 | 0.03 | 0.18 | 0.10 | 97 | 1008.2 |
| 20260509121003 | 10 | 0 | 0.0 | 0.0 | 0.03 | 0.18 | 0.10 | 97 | 1008.3 |
| 20260509120003 | 10 | 0 | 0.0 | 0.0 | 0.03 | 0.18 | 0.10 | 97 | 1008.4 |
| 20260509115003 | 10 | 0 | 0.0 | 0.0 | 0.03 | 0.18 | 0.10 | 97 | 1008.5 |
| 20260509114003 | 9 | 0 | 0.0 | 0.0 | 0.05 | 0.18 | 0.10 | 97 | 1008.7 |
| 20260509113003 | 9 | 0 | 0.0 | 0.0 | 0.03 | 0.15 | 0.08 | 97 | 1008.6 |
| 20260509112214 | 9 | 0 | 0.0 | 0.0 | 0.03 | 0.15 | 0.08 | 97 | 1008.7 |
| 20260509111003 | 8 | 0 | 0.0 | 0.0 | 0.03 | 0.15 | 0.08 | 96 | 1008.6 |
| 20260509110003 | 8 | 0 | 0.0 | 0.0 | 0.03 | 0.18 | 0.08 | 96 | 1008.7 |
| 20260509105003 | 8 | 0 | 0.0 | 0.0 | 0.03 | 0.18 | 0.08 | 96 | 1008.8 |
| 20260509104214 | 8 | 0 | 0.0 | 0.0 | 0.00 | 0.15 | 0.05 | 96 | 1008.8 |
| 20260509103003 | 8 | 0 | 0.0 | 0.0 | 0.00 | 0.15 | 0.05 | 96 | 1008.8 |
| 20260509102003 | 8 | 0 | 0.0 | 0.0 | 0.00 | 0.15 | 0.05 | 96 | 1008.8 |
| 20260509101003 | 8 | 0 | 0.0 | 0.0 | 0.00 | 0.15 | 0.05 | 96 | 1008.7 |
| 20260509100004 | 8 | 0 | 0.0 | 0.0 | 0.00 | 0.15 | 0.05 | 96 | 1008.6 |
| 20260509095003 | 8 | 0 | 0.0 | 0.0 | 0.00 | 0.15 | 0.05 | 96 | 1008.6 |
| 20260509094003 | 8 | 0 | 0.0 | 0.0 | 0.00 | 0.15 | 0.05 | 96 | 1008.6 |
| 20260509093003 | 8 | 0 | 0.0 | 0.0 | 0.00 | 0.15 | 0.05 | 96 | 1008.6 |
| 20260509092213 | 8 | 0 | 0.0 | 0.0 | 0.00 | 0.15 | 0.05 | 96 | 1008.6 |
| 20260509091003 | 8 | 0 | 0.0 | 0.0 | 0.00 | 0.15 | 0.05 | 96 | 1008.7 |
| 20260509090213 | 8 | 0 | 0.0 | 0.0 | 0.00 | 0.15 | 0.05 | 96 | 1008.8 |
| 20260509085003 | 8 | 0 | 0.0 | 0.0 | 0.00 | 0.15 | 0.05 | 96 | 1009.0 |
| 20260509084213 | 8 | 0 | 0.0 | 0.0 | 0.00 | 0.15 | 0.05 | 96 | 1009.1 |
| 20260509083003 | 8 | 0 | 0.0 | 0.0 | 0.00 | 0.15 | 0.05 | 96 | 1009.3 |
| 20260509082003 | 8 | 0 | 0.0 | 0.0 | 0.00 | 0.15 | 0.05 | 96 | 1009.5 |
| 20260509081213 | 8 | 0 | 0.0 | 0.0 | 0.00 | 0.15 | 0.05 | 96 | 1009.5 |
| 20260509080003 | 8 | 0 | 0.0 | 0.0 | 0.00 | 0.15 | 0.05 | 96 | 1009.7 |
| 20260509075003 | 8 | 0 | 0.0 | 0.0 | 0.00 | 0.15 | 0.05 | 96 | 1009.5 |
| 20260509074003 | 8 | 0 | 0.0 | 0.0 | 0.00 | 0.15 | 0.05 | 96 | 1009.5 |
| 20260509073003 | 8 | 0 | 0.0 | 0.0 | 0.00 | 0.15 | 0.05 | 96 | 1009.5 |
| 20260509072003 | 8 | 0 | 0.0 | 0.0 | 0.00 | 0.15 | 0.05 | 96 | 1009.5 |
| 20260509071003 | 8 | 0 | 0.0 | 0.0 | 0.00 | 0.15 | 0.05 | 96 | 1009.6 |
| 20260509070003 | 8 | 0 | 0.0 | 0.0 | 0.00 | 0.15 | 0.05 | 96 | 1009.5 |
| 20260509065003 | 8 | 0 | 0.0 | 0.0 | 0.03 | 0.15 | 0.05 | 96 | 1009.4 |
| 20260509064003 | 8 | 0 | 0.0 | 0.0 | 0.03 | 0.15 | 0.05 | 96 | 1009.5 |
| 20260509063214 | 9 | 0 | 0.0 | 0.0 | 0.05 | 0.15 | 0.05 | 96 | 1009.7 |
| 20260509062003 | 8 | 0 | 0.0 | 0.0 | 0.05 | 0.15 | 0.05 | 96 | 1009.8 |
| 20260509061003 | 8 | 0 | 0.0 | 0.0 | 0.05 | 0.15 | 0.05 | 96 | 1010.0 |
| 20260509060004 | 8 | 0 | 0.0 | 0.0 | 0.05 | 0.15 | 0.05 | 96 | 1010.2 |
| 20260509055003 | 8 | 0 | 0.0 | 0.0 | 0.03 | 0.13 | 0.03 | 96 | 1010.6 |
| 20260509054003 | 8 | 0 | 0.0 | 0.0 | 0.03 | 0.13 | 0.03 | 96 | 1010.7 |
| 20260509053003 | 8 | 0 | 0.0 | 0.0 | 0.00 | 0.10 | 0.00 | 96 | 1010.5 |
| 20260509052003 | 8 | 0 | 0.0 | 0.0 | 0.00 | 0.10 | 0.00 | 96 | 1010.3 |
| 20260509051003 | 8 | 0 | 0.0 | 0.0 | 0.00 | 0.10 | 0.00 | 95 | 1009.9 |
| 20260509050213 | 8 | 0 | 0.0 | 0.0 | 0.00 | 0.10 | 0.00 | 95 | 1009.8 |
| 20260509045003 | 8 | 0 | 0.0 | 0.0 | 0.00 | 0.13 | 0.00 | 95 | 1009.8 |
| 20260509044003 | 8 | 0 | 0.0 | 0.0 | 0.00 | 0.13 | 0.00 | 96 | 1009.7 |
| 20260509043003 | 8 | 0 | 0.0 | 0.0 | 0.00 | 0.13 | 0.00 | 95 | 1009.6 |
| 20260509042003 | 8 | 0 | 0.0 | 0.0 | 0.00 | 0.13 | 0.00 | 95 | 1009.9 |
| 20260509041003 | 8 | 0 | 0.0 | 0.0 | 0.00 | 0.15 | 0.00 | 95 | 1010.0 |
| 20260509040004 | 8 | 0 | 0.0 | 0.0 | 0.00 | 0.18 | 0.00 | 95 | 1010.1 |
| 20260509035003 | 8 | 0 | 0.0 | 0.0 | 0.00 | 0.18 | 0.18 | 95 | 1010.1 |
| 20260509034003 | 8 | 0 | 0.0 | 0.0 | 0.00 | 0.18 | 0.18 | 95 | 1010.0 |
| 20260509033003 | 8 | 0 | 0.0 | 0.0 | 0.00 | 0.18 | 0.18 | 95 | 1009.9 |
| 20260509032003 | 8 | 0 | 0.0 | 0.0 | 0.00 | 0.20 | 0.18 | 95 | 1010.0 |
| 20260509031003 | 8 | 0 | 0.0 | 0.0 | 0.00 | 0.23 | 0.18 | 95 | 1010.2 |
| 20260509030003 | 8 | 0 | 0.0 | 0.0 | 0.00 | 0.23 | 0.18 | 95 | 1010.4 |
| 20260509025213 | 8 | 0 | 0.0 | 0.0 | 0.00 | 0.23 | 0.18 | 95 | 1010.5 |
| 20260509024003 | 8 | 0 | 0.0 | 0.0 | 0.00 | 0.23 | 0.18 | 94 | 1010.3 |
| 20260509023003 | 8 | 0 | 0.0 | 0.0 | 0.00 | 0.23 | 0.18 | 94 | 1010.2 |
| 20260509022003 | 8 | 0 | 0.0 | 0.0 | 0.00 | 0.23 | 0.18 | 93 | 1010.1 |
| 20260509021003 | 9 | 0 | 0.0 | 0.0 | 0.00 | 0.23 | 0.18 | 93 | 1010.2 |
| 20260509020003 | 9 | 0 | 0.0 | 0.0 | 0.00 | 0.23 | 0.18 | 93 | 1010.2 |
| 20260509015003 | 10 | 0 | 0.0 | 0.0 | 0.00 | 0.23 | 0.18 | 93 | 1010.2 |
| 20260509014214 | 10 | 0 | 0.0 | 0.0 | 0.00 | 0.23 | 0.18 | 93 | 1010.1 |
| 20260509013003 | 10 | 0 | 0.0 | 0.0 | 0.00 | 0.23 | 0.18 | 94 | 1009.9 |
| 20260509012003 | 10 | 0 | 0.0 | 0.0 | 0.00 | 0.23 | 0.18 | 94 | 1009.9 |
| 20260509011003 | 10 | 0 | 0.0 | 0.0 | 0.00 | 0.23 | 0.18 | 94 | 1009.9 |
| 20260509010003 | 10 | 0 | 0.0 | 0.0 | 0.00 | 0.23 | 0.18 | 93 | 1009.9 |
| 20260509005003 | 10 | 0 | 0.0 | 0.0 | 0.00 | 0.23 | 0.18 | 93 | 1009.6 |
| 20260509004003 | 10 | 0 | 0.0 | 0.0 | 0.00 | 0.23 | 0.18 | 93 | 1009.5 |
| 20260509003003 | 11 | 0 | 0.0 | 0.0 | 0.00 | 0.23 | 0.18 | 93 | 1009.5 |
| 20260509002003 | 11 | 0 | 0.0 | 0.0 | 0.03 | 0.23 | 0.18 | 92 | 1009.4 |
| 20260509001003 | 11 | 0 | 0.0 | 0.0 | 0.03 | 0.23 | 0.18 | 92 | 1009.4 |
| 20260509000003 | 11 | 0 | 0.0 | 0.0 | 0.05 | 0.23 | 0.18 | 92 | 1009.2 |
| 20260508235214 | 11 | 0 | 0.0 | 0.0 | 0.05 | 0.23 | 0.18 | 92 | 1009.1 |
| 20260508234213 | 11 | 0 | 0.0 | 0.0 | 0.05 | 0.23 | 0.18 | 91 | 1009.1 |
| 20260508233213 | 11 | 0 | 0.0 | 0.0 | 0.05 | 0.23 | 0.18 | 90 | 1009.2 |
| 20260508232213 | 12 | 0 | 0.0 | 0.0 | 0.03 | 0.20 | 0.15 | 88 | 1009.1 |
| 20260508231213 | 12 | 0 | 0.0 | 0.0 | 0.03 | 0.20 | 0.15 | 86 | 1009.1 |
| 20260508230213 | 13 | 0 | 0.0 | 0.0 | 0.00 | 0.18 | 0.13 | 82 | 1009.2 |
| 20260508225003 | 13 | 0 | 0.0 | 0.0 | 0.00 | 0.18 | 0.13 | 76 | 1009.0 |
| 20260508224213 | 13 | 0 | 0.0 | 0.0 | 0.00 | 0.18 | 0.13 | 74 | 1009.0 |
| 20260508223003 | 14 | 0 | 0.0 | 0.0 | 0.00 | 0.18 | 0.13 | 72 | 1008.7 |
| 20260508222003 | 14 | 0 | 0.0 | 0.0 | 0.00 | 0.18 | 0.13 | 71 | 1008.6 |
| 20260508221003 | 14 | 0 | 0.0 | 0.0 | 0.00 | 0.18 | 0.13 | 69 | 1008.6 |
| 20260508220003 | 15 | 0 | 0.0 | 0.0 | 0.00 | 0.18 | 0.13 | 70 | 1008.6 |
| 20260508215003 | 15 | 347 | 0.0 | 4.8 | 0.00 | 0.18 | 0.13 | 69 | 1008.7 |
| 20260508214003 | 14 | 355 | 1.6 | 4.8 | 0.00 | 0.18 | 0.13 | 68 | 1008.7 |